GW0378 Weather Reports


time (UTC)temp
C
wind
direction
speed
KPH
gust
KPH
rain 1hr
cm
rain 24hr
cm
rain mn
cm
humidity
%
barometer
mb
20260903012204 15 180 0.0 0.0 0.00 0.74 0.74 72 1010.7
20260903011659 15 15 0.0 0.0 0.00 0.74 0.74 70 1010.9
20260903011158 15 15 0.0 0.0 0.00 0.74 0.74 72 1010.5
20260903010653 15 15 0.0 1.6 0.00 0.74 0.74 72 1010.9
20260903010153 15 261 0.0 0.0 0.00 0.74 0.74 69 1010.7
20260903005647 16 261 0.0 0.0 0.00 0.74 0.74 67 1010.7
20260903005142 16 270 0.0 3.2 0.00 0.74 0.74 66 1010.8
20260903004637 16 325 0.0 4.8 0.00 0.74 0.74 67 1011.0
20260903004132 15 172 0.0 0.0 0.00 0.74 0.74 70 1011.0
20260903003628 16 66 0.0 1.6 0.00 0.74 0.74 68 1011.0
20260903003123 16 297 0.0 4.8 0.00 0.74 0.74 67 1011.1
20260903002618 16 301 3.2 3.2 0.00 0.74 0.74 66 1011.3
20260903002112 16 283 3.2 4.8 0.00 0.74 0.74 68 1011.5
20260903001607 16 0 0.0 3.2 0.00 0.74 0.74 68 1011.3
20260903001107 16 305 3.2 6.4 0.00 0.74 0.74 66 1011.3
20260903000602 16 74 0.0 3.2 0.00 0.74 0.74 69 1011.6
20260903000055 16 330 3.2 4.8 0.00 0.74 0.74 70 1011.5
20260902235555 16 326 3.2 6.4 0.00 0.74 0.74 71 1011.6
20260902235050 15 270 1.6 6.4 0.00 0.74 0.74 73 1011.7
20260902234544 15 257 6.4 6.4 0.00 0.74 0.74 76 1011.8
20260902234043 15 276 3.2 6.4 0.00 0.74 0.74 75 1011.7
20260902233538 15 26 3.2 4.8 0.00 0.74 0.74 75 1011.7
20260902233032 15 284 4.8 4.8 0.00 0.74 0.74 74 1011.5
20260902232532 14 0 0.0 3.2 0.00 0.74 0.74 74 1011.5
20260902232026 15 98 1.6 4.8 0.00 0.74 0.74 75 1011.9
20260902231521 15 246 0.0 1.6 0.00 0.74 0.74 75 1011.9
20260902231021 14 26 0.0 0.0 0.00 0.74 0.74 81 1011.9
20260902230515 13 299 3.2 4.8 0.00 0.74 0.74 84 1011.9
20260902230014 13 352 0.0 3.2 0.00 0.74 0.74 85 1012.0
20260902225510 13 99 0.0 3.2 0.00 0.74 0.74 85 1011.8
20260902225004 13 0 1.6 3.2 0.00 0.74 0.74 86 1011.9
20260902224503 12 278 0.0 3.2 0.00 0.74 0.74 86 1012.3
20260902223959 12 9 3.2 4.8 0.00 0.74 0.74 87 1012.3
20260902223455 12 24 3.2 4.8 0.00 0.74 0.74 88 1012.3
20260902222954 12 90 3.2 3.2 0.00 0.74 0.74 88 1012.4
20260902222453 12 14 0.0 3.2 0.00 0.74 0.74 89 1012.3
20260902221952 12 65 3.2 4.8 0.00 0.74 0.74 90 1012.6
20260902221452 12 54 0.0 1.6 0.00 0.74 0.74 91 1012.7
20260902220947 11 15 0.0 1.6 0.00 0.74 0.74 92 1012.6
20260902220441 11 15 0.0 1.6 0.00 0.74 0.74 93 1012.8
20260902215936 11 15 1.6 3.2 0.00 0.74 0.74 93 1012.4
20260902215432 11 71 1.6 6.4 0.00 0.74 0.74 94 1012.6
20260902214928 11 233 3.2 6.4 0.00 0.74 0.74 94 1012.8
20260902214426 11 307 3.2 4.8 0.00 0.74 0.74 94 1012.7
20260902213921 11 203 1.6 4.8 0.00 0.74 0.74 94 1012.8
20260902213417 11 262 4.8 9.7 0.00 0.74 0.74 94 1012.5
20260902212916 11 192 4.8 16.1 0.00 0.74 0.74 93 1012.6
20260902212412 10 234 6.4 8.0 0.00 0.74 0.74 94 1011.7
20260902211908 10 173 0.0 4.8 0.00 0.74 0.74 94 1011.3
20260902211403 10 180 3.2 4.8 0.00 0.74 0.74 93 1010.5
20260902210853 11 8 0.0 1.6 0.00 0.74 0.74 93 1011.1
20260902210352 10 209 4.8 6.4 0.00 0.74 0.74 93 1011.4
20260902205850 10 53 3.2 6.4 0.00 0.74 0.74 93 1011.5
20260902205340 11 117 3.2 8.0 0.00 0.74 0.74 93 1011.9
20260902204835 11 41 0.0 4.8 0.00 0.74 0.74 93 1012.3
20260902204330 10 233 0.0 4.8 0.05 0.74 0.74 93 1012.4
20260902203826 10 188 0.0 3.2 0.05 0.71 0.71 93 1012.7
20260902203321 10 24 3.2 8.0 0.18 0.71 0.71 93 1013.2
20260902202820 10 66 1.6 4.8 0.23 0.71 0.71 93 1013.9
20260902202317 10 0 1.6 3.2 0.48 0.69 0.69 92 1014.5
20260902201813 10 47 4.8 6.4 0.53 0.66 0.66 92 1014.4
20260902201312 10 29 0.0 6.4 0.36 0.61 0.61 92 1014.8
20260902200808 11 61 4.8 6.4 0.43 0.56 0.56 91 1014.7
20260902200303 11 103 1.6 3.2 0.66 0.56 0.56 89 1014.8
20260902195758 11 270 3.2 4.8 0.53 0.48 0.48 87 1014.7
20260902195257 11 245 3.2 8.0 0.43 0.43 0.43 85 1014.5
20260902194752 11 201 0.0 6.4 0.84 0.38 0.38 89 1014.4
20260902194247 11 174 6.4 12.9 1.45 0.33 0.33 91 1014.0
20260902193743 11 196 3.2 12.9 1.32 0.25 0.25 84 1013.7
20260902193238 12 287 6.4 12.9 0.48 0.10 0.10 82 1013.7
20260902192737 13 298 4.8 12.9 0.13 0.03 0.03 75 1012.9
20260902192236 13 261 9.7 20.9 0.13 0.03 0.03 75 1012.5
20260902191731 13 196 11.3 12.9 0.00 0.00 0.00 74 1012.0
20260902191226 14 203 17.7 25.7 0.00 0.00 0.00 70 1011.6
20260902190721 15 235 12.9 41.8 0.00 0.00 0.00 66 1011.6
20260902190221 15 236 32.2 38.6 0.00 0.00 0.00 64 1011.4
20260902185717 16 241 8.0 40.2 0.00 0.00 0.00 63 1011.0
20260902185213 16 199 16.1 41.8 0.00 0.00 0.00 62 1011.1
20260902184712 16 230 16.1 40.2 0.00 0.00 0.00 61 1010.9
20260902184208 17 289 14.5 14.5 0.00 0.00 0.00 65 1010.9
20260902183704 17 148 3.2 22.5 0.00 0.00 0.00 66 1010.7
20260902183200 17 272 11.3 12.9 0.00 0.00 0.00 71 1010.6
20260902182656 17 299 3.2 11.3 0.00 0.00 0.00 70 1010.6
20260902182152 17 264 4.8 9.7 0.00 0.00 0.00 70 1010.4
20260902181648 17 264 8.0 11.3 0.00 0.00 0.00 70 1010.5
20260902181148 17 286 4.8 11.3 0.00 0.00 0.00 70 1010.3
20260902180642 17 283 4.8 9.7 0.00 0.00 0.00 69 1010.3
20260902180138 17 258 3.2 11.3 0.00 0.00 0.00 69 1010.3
20260902175637 17 247 9.7 9.7 0.00 0.00 0.00 68 1010.1
20260902175133 17 231 8.0 11.3 0.00 0.00 0.00 68 1010.0
20260902174630 18 267 4.8 9.7 0.00 0.00 0.00 67 1010.1
20260902174125 18 277 4.8 4.8 0.00 0.00 0.00 69 1009.9
20260902173620 18 309 3.2 8.0 0.00 0.00 0.00 68 1009.7
20260902173115 18 280 4.8 8.0 0.00 0.00 0.00 67 1009.9
20260902172609 18 302 4.8 8.0 0.00 0.00 0.00 66 1009.7
20260902172103 18 111 4.8 6.4 0.00 0.00 0.00 67 1009.8
20260902171559 18 206 3.2 4.8 0.00 0.00 0.00 68 1009.7
20260902171055 17 277 4.8 6.4 0.00 0.00 0.00 71 1009.6
20260902170550 18 254 3.2 8.0 0.00 0.00 0.00 69 1009.5
20260902170046 17 286 1.6 8.0 0.00 0.00 0.00 72 1009.5
20260902165545 17 20 4.8 8.0 0.00 0.00 0.00 72 1009.6
20260902165039 17 26 4.8 6.4 0.00 0.00 0.00 74 1009.6
20260902164535 17 331 3.2 4.8 0.00 0.00 0.00 73 1009.5
20260902164033 16 3 3.2 11.3 0.00 0.00 0.00 75 1009.6
20260902163530 16 235 3.2 4.8 0.00 0.00 0.00 76 1009.3
20260902163028 16 294 0.0 6.4 0.00 0.00 0.00 77 1009.1
20260902162527 15 288 6.4 11.3 0.00 0.00 0.00 77 1009.3
20260902162023 16 236 3.2 4.8 0.00 0.00 0.00 76 1009.1
20260902161518 16 39 3.2 6.4 0.00 0.00 0.00 76 1009.0
20260902161013 15 241 0.0 3.2 0.00 0.00 0.00 79 1009.3
20260902160509 15 206 3.2 3.2 0.00 0.00 0.00 79 1009.0
20260902160010 15 4 0.0 6.4 0.00 0.00 0.00 80 1008.8
20260902155502 15 0 3.2 4.8 0.00 0.00 0.00 79 1009.1
20260902155001 15 306 0.0 4.8 0.00 0.00 0.00 80 1009.3
20260902154456 15 203 0.0 3.2 0.00 0.00 0.00 80 1008.9
20260902153952 14 0 3.2 4.8 0.00 0.00 0.00 82 1009.0
20260902153450 14 315 3.2 3.2 0.00 0.00 0.00 83 1009.1
20260902152945 13 257 3.2 4.8 0.00 0.00 0.00 84 1009.1
20260902152442 13 270 3.2 6.4 0.00 0.00 0.00 85 1009.0
20260902151937 13 265 3.2 6.4 0.00 0.00 0.00 85 1008.9
20260902151433 13 180 0.0 8.0 0.00 0.00 0.00 86 1008.9
20260902150926 13 260 6.4 6.4 0.00 0.00 0.00 87 1009.1
20260902150423 13 270 4.8 6.4 0.00 0.00 0.00 87 1009.0
20260902145922 13 195 1.6 6.4 0.00 0.00 0.00 87 1008.9
20260902145418 13 212 1.6 4.8 0.00 0.00 0.00 88 1008.8
20260902144913 12 270 1.6 4.8 0.00 0.00 0.00 88 1009.0
20260902144409 13 340 1.6 3.2 0.00 0.00 0.00 87 1008.8
20260902143903 13 45 0.0 3.2 0.00 0.00 0.00 88 1008.9
20260902143358 12 35 0.0 3.2 0.00 0.00 0.00 88 1008.9
20260902142853 12 286 0.0 1.6 0.00 0.00 0.00 89 1009.0
20260902142349 12 315 0.0 4.8 0.00 0.00 0.00 89 1009.0
20260902141844 12 168 0.0 3.2 0.00 0.00 0.00 90 1009.1
20260902141340 12 145 1.6 4.8 0.00 0.00 0.00 90 1009.0
20260902140839 12 187 1.6 1.6 0.00 0.00 0.00 90 1009.4
20260902140334 12 270 0.0 0.0 0.00 0.00 0.00 90 1009.5
20260902135833 12 99 0.0 4.8 0.00 0.00 0.00 90 1009.5
20260902135330 12 156 0.0 3.2 0.00 0.00 0.00 90 1009.3
20260902134828 12 172 0.0 0.0 0.00 0.00 0.00 90 1009.1
20260902134324 11 257 1.6 1.6 0.00 0.00 0.00 91 1009.4
20260902133820 11 98 1.6 1.6 0.00 0.00 0.00 91 1009.5
20260902133319 11 35 0.0 4.8 0.00 0.00 0.00 91 1009.6
20260902132815 11 209 3.2 3.2 0.00 0.00 0.00 91 1009.5
20260902132310 11 90 3.2 4.8 0.00 0.00 0.00 90 1009.5
20260902131805 11 180 0.0 0.0 0.00 0.00 0.00 90 1009.6
20260902131301 11 74 0.0 3.2 0.00 0.00 0.00 90 1009.4
20260902130755 11 78 1.6 4.8 0.00 0.00 0.00 90 1009.4
20260902130251 11 18 1.6 3.2 0.00 0.00 0.00 90 1009.6
20260902125747 11 115 3.2 3.2 0.00 0.00 0.00 89 1009.5
20260902125242 12 90 3.2 3.2 0.00 0.00 0.00 89 1009.3
20260902124739 12 60 1.6 3.2 0.00 0.00 0.00 88 1009.3
20260902124234 12 195 3.2 4.8 0.00 0.00 0.00 88 1009.5
20260902123729 12 90 0.0 4.8 0.00 0.00 0.00 88 1009.3
20260902123225 12 157 0.0 3.2 0.00 0.00 0.00 86 1009.3
20260902122724 13 331 0.0 6.4 0.00 0.00 0.00 85 1009.5
20260902122220 13 281 0.0 8.0 0.00 0.00 0.00 84 1009.3
20260902121720 13 7 3.2 11.3 0.00 0.00 0.00 82 1009.3
20260902121215 13 125 11.3 16.1 0.00 0.00 0.00 82 1009.5
20260902120710 13 98 9.7 12.9 0.00 0.00 0.00 83 1009.5
20260902120206 12 120 8.0 8.0 0.00 0.00 0.00 87 1009.4
20260902115701 12 112 3.2 4.8 0.00 0.00 0.00 87 1009.4
20260902115157 12 166 0.0 4.8 0.00 0.00 0.00 86 1009.7
20260902114653 12 317 8.0 12.9 0.00 0.00 0.00 86 1009.8
20260902114147 13 226 6.4 14.5 0.00 0.00 0.00 83 1009.7
20260902113642 13 82 0.0 4.8 0.00 0.00 0.00 80 1009.6
20260902113137 13 117 8.0 12.9 0.00 0.00 0.00 82 1009.4
20260902112633 12 129 8.0 16.1 0.00 0.00 0.00 83 1009.4
20260902112130 13 105 12.9 17.7 0.00 0.00 0.00 83 1009.4
20260902111625 12 106 11.3 14.5 0.00 0.00 0.00 83 1010.1
20260902111121 12 98 11.3 12.9 0.00 0.00 0.00 85 1010.3
20260902110617 12 94 3.2 8.0 0.00 0.00 0.00 85 1010.5
20260902110113 12 97 8.0 9.7 0.00 0.00 0.00 86 1010.8
20260902105612 12 177 3.2 4.8 0.00 0.00 0.00 85 1011.0
20260902105107 12 70 4.8 6.4 0.00 0.00 0.00 84 1011.1
20260902104602 12 244 4.8 8.0 0.00 0.00 0.00 85 1011.5
20260902104057 12 90 0.0 4.8 0.00 0.00 0.00 84 1011.5
20260902103552 12 103 4.8 6.4 0.00 0.00 0.00 86 1011.1
20260902103047 12 90 1.6 8.0 0.00 0.00 0.00 84 1011.4
20260902102543 13 151 0.0 3.2 0.00 0.00 0.00 83 1011.4
20260902102041 13 47 4.8 4.8 0.00 0.00 0.00 82 1011.3
20260902101536 13 5 3.2 11.3 0.00 0.00 0.00 81 1011.1
20260902101034 13 85 3.2 4.8 0.00 0.00 0.00 84 1011.3
20260902100535 13 132 3.2 3.2 0.00 0.00 0.00 84 1011.4
20260902100035 12 60 4.8 4.8 0.00 0.00 0.00 85 1011.5
20260902095534 13 140 0.0 3.2 0.00 0.00 0.00 85 1011.5
20260902095033 13 98 3.2 4.8 0.00 0.00 0.00 84 1011.3
20260902094529 13 109 4.8 6.4 0.00 0.00 0.00 85 1011.5
20260902094025 13 150 3.2 6.4 0.00 0.00 0.00 88 1011.4
20260902093525 13 135 3.2 4.8 0.00 0.00 0.00 87 1011.5
20260902093020 13 145 0.0 3.2 0.00 0.00 0.00 87 1011.5
20260902092514 13 106 0.0 0.0 0.00 0.00 0.00 86 1011.6
20260902092009 13 96 3.2 3.2 0.00 0.00 0.00 85 1011.3
20260902091504 13 29 0.0 1.6 0.00 0.00 0.00 84 1011.4
20260902091000 13 217 4.8 4.8 0.00 0.00 0.00 82 1011.1
20260902090455 13 111 1.6 4.8 0.00 0.00 0.00 80 1011.0
20260902085954 14 110 6.4 8.0 0.00 0.00 0.00 80 1011.0
20260902085449 13 106 4.8 6.4 0.00 0.00 0.00 83 1011.0
20260902084944 14 69 1.6 4.8 0.00 0.00 0.00 84 1011.1
20260902084441 13 106 3.2 4.8 0.00 0.00 0.00 84 1011.3
20260902083937 14 112 3.2 4.8 0.00 0.00 0.00 83 1011.4
20260902083436 14 270 0.0 4.8 0.00 0.00 0.00 82 1011.5
20260902082931 14 45 3.2 4.8 0.00 0.00 0.00 82 1011.5
20260902082427 14 172 0.0 1.6 0.00 0.00 0.00 81 1011.4
20260902081923 15 5 1.6 3.2 0.00 0.00 0.00 81 1011.4
20260902081420 14 262 0.0 1.6 0.00 0.00 0.00 81 1011.4
20260902080914 14 180 1.6 3.2 0.00 0.00 0.00 80 1011.6
20260902080410 15 111 1.6 3.2 0.00 0.00 0.00 79 1011.5
20260902075909 15 8 0.0 1.6 0.00 0.00 0.00 78 1011.5
20260902075406 15 26 1.6 4.8 0.00 0.00 0.00 77 1011.4
20260902074901 15 75 1.6 3.2 0.00 0.00 0.00 75 1011.7
20260902074357 15 183 3.2 4.8 0.00 0.00 0.00 75 1011.7
20260902073851 15 90 1.6 3.2 0.00 0.00 0.00 75 1011.6
20260902073348 15 246 3.2 3.2 0.00 0.00 0.00 75 1011.8
20260902072844 16 0 4.8 8.0 0.00 0.00 0.00 74 1012.0
20260902072339 16 277 0.0 3.2 0.00 0.00 0.00 71 1011.9
20260902071835 16 131 4.8 4.8 0.00 0.00 0.00 71 1011.9
20260902071329 16 103 1.6 8.0 0.00 0.00 0.00 71 1011.8
20260902070826 15 90 1.6 3.2 0.00 0.00 0.00 73 1012.4
20260902070326 15 202 3.2 4.8 0.00 0.00 0.00 76 1012.3
20260902065825 15 166 0.0 4.8 0.00 0.00 0.00 77 1012.4
20260902065320 15 117 4.8 4.8 0.00 0.00 0.00 77 1012.1
20260902064815 15 180 0.0 4.8 0.00 0.00 0.00 78 1011.9
20260902064312 15 99 0.0 4.8 0.00 0.00 0.00 78 1012.5
20260902063807 15 85 3.2 11.3 0.00 0.00 0.00 78 1012.3
20260902063307 15 20 0.0 6.4 0.00 0.00 0.00 78 1012.7
20260902062801 15 107 6.4 11.3 0.00 0.00 0.00 78 1012.9
20260902062256 15 90 0.0 3.2 0.00 0.00 0.00 77 1012.7
20260902061755 15 20 4.8 4.8 0.00 0.00 0.00 77 1012.8
20260902061250 15 38 3.2 4.8 0.00 0.00 0.00 76 1013.0
20260902060748 15 90 1.6 4.8 0.00 0.00 0.00 75 1013.1
20260902060242 16 312 3.2 4.8 0.00 0.00 0.00 74 1013.1
20260902055738 15 275 3.2 4.8 0.00 0.05 0.05 74 1012.7
20260902055234 15 218 4.8 6.4 0.00 0.05 0.05 75 1012.8
20260902054729 15 168 1.6 6.4 0.00 0.05 0.05 76 1012.8
20260902054225 15 263 0.0 4.8 0.00 0.05 0.05 78 1012.5
20260902053720 15 237 0.0 6.4 0.00 0.05 0.05 78 1012.5
20260902053220 15 263 0.0 9.7 0.00 0.05 0.05 79 1012.6
20260902052719 15 235 4.8 6.4 0.00 0.05 0.05 78 1012.4
20260902052215 16 166 1.6 4.8 0.00 0.05 0.05 74 1012.1
20260902051714 16 21 3.2 4.8 0.00 0.05 0.05 74 1012.0
20260902051209 15 151 0.0 1.6 0.00 0.05 0.05 74 1012.0
20260902050703 16 98 0.0 3.2 0.00 0.05 0.05 75 1011.9
20260902050159 16 112 3.2 8.0 0.00 0.05 0.05 74 1012.0
20260902045653 16 104 4.8 4.8 0.00 0.05 0.05 74 1012.1
20260902045150 16 94 8.0 8.0 0.00 0.05 0.05 74 1012.5
20260902044650 16 79 3.2 4.8 0.00 0.05 0.05 72 1012.9
20260902044146 16 90 3.2 11.3 0.00 0.05 0.05 71 1013.4
20260902043641 16 263 1.6 8.0 0.00 0.05 0.05 71 1013.2
20260902043136 16 253 3.2 9.7 0.00 0.05 0.05 70 1013.8
20260902042635 17 252 9.7 11.3 0.00 0.05 0.05 69 1013.9
20260902042131 16 270 1.6 3.2 0.00 0.05 0.05 68 1013.7
20260902041630 17 114 0.0 1.6 0.00 0.05 0.05 69 1013.6
20260902041125 16 108 4.8 8.0 0.00 0.05 0.05 69 1013.8
20260902040625 17 186 1.6 4.8 0.00 0.05 0.05 68 1013.9
20260902040120 17 50 6.4 8.0 0.00 0.05 0.05 67 1013.6
20260902035618 17 103 6.4 14.5 0.00 0.05 0.05 67 1013.9
20260902035114 17 107 11.3 20.9 0.00 0.05 0.05 67 1013.9
20260902034613 17 103 0.0 19.3 0.00 0.05 0.05 67 1013.8
20260902034113 16 161 4.8 8.0 0.00 0.05 0.05 70 1013.6
20260902033612 16 112 11.3 19.3 0.00 0.05 0.05 71 1013.8
20260902033108 17 138 4.8 4.8 0.00 0.05 0.05 70 1013.7
20260902032606 17 53 0.0 8.0 0.00 0.05 0.05 70 1013.8
20260902032101 17 246 0.0 8.0 0.00 0.05 0.05 70 1013.9
20260902031601 17 71 8.0 14.5 0.00 0.05 0.05 70 1013.8
20260902031057 16 34 6.4 11.3 0.05 0.05 0.05 72 1013.6
20260902030552 16 135 0.0 9.7 0.05 0.05 0.05 74 1013.7
20260902030052 16 86 4.8 8.0 0.05 0.03 0.03 74 1013.5
20260902025552 16 99 0.0 3.2 0.13 0.03 0.03 75 1013.8
20260902025047 16 120 0.0 3.2 0.13 0.03 0.03 74 1013.8
20260902024543 17 172 0.0 9.7 0.05 0.00 0.00 71 1013.9
20260902024042 17 217 6.4 8.0 0.00 0.00 0.00 67 1013.4
20260902023538 18 307 3.2 17.7 0.00 0.00 0.00 65 1013.6
20260902023033 18 259 8.0 11.3 0.00 0.00 0.00 63 1013.5
20260902022527 18 169 3.2 9.7 0.00 0.00 0.00 61 1013.4
20260902022023 18 220 4.8 4.8 0.00 0.00 0.00 62 1013.5
20260902021519 18 173 0.0 6.4 0.00 0.00 0.00 63 1013.2
20260902021014 18 180 0.0 4.8 0.00 0.00 0.00 63 1013.2
20260902020509 18 195 1.6 4.8 0.00 0.00 0.00 62 1013.4
20260902020005 18 270 0.0 6.4 0.00 0.00 0.00 62 1013.4
20260902015501 18 121 0.0 9.7 0.00 0.00 0.00 61 1013.4
20260902014956 19 243 6.4 29.0 0.00 0.00 0.00 56 1013.5
20260902014452 20 253 3.2 9.7 0.00 0.00 0.00 53 1013.5
20260902013952 20 154 6.4 24.1 0.00 0.00 0.00 53 1013.4
20260902013447 20 206 9.7 9.7 0.00 0.00 0.00 53 1012.7
20260902012942 20 121 4.8 9.7 0.00 0.00 0.00 54 1012.6
20260902012438 20 79 3.2 9.7 0.00 0.00 0.00 55 1012.0